Location: �clusier
(49.9361°N, 2.7869°E)
Time: 02:38:58
(UTC+00:00)

Cosmos 1943 Rocket - Pass Details

Date: 28 October 2021
Orbit: 811 x 844 km, 71.0° (Epoch: 07 December)

Event Time Altitude Azimuth Distance (km) Brightness Sun altitude
Rises 17:23:31 0° 328° (NNW) 3,415 5.7 -8.7°
Reaches altitude 10° 17:29:01 10° 11° (N) 2,477 4.4 -9.6°
Maximum altitude 17:29:39 10° 18° (NNE) 2,464 4.4 -9.7°
Drops below altitude 10° 17:30:18 10° 24° (NNE) 2,476 4.3 -9.8°
Enters shadow 17:32:41 - 47° (NE) 2,725 4.4 -10.2°
